Location: Newark
(43.0658°N, 122.2322°W)
Time: 00:57:54
(UTC+00:00)

ISS - Visible Passes

Search period start: 21 September 2020 00:00
Search period end: 01 October 2020 00:00
Orbit: 419 x 420 km, 51.6° (Epoch: 21 September)

Date Brightness Start Highest point End Pass type
(mag) Time Alt. Az. Time Alt. Az. Time Alt. Az.
21 Sep -2.9 03:22:53 10° WSW 03:26:10 48° NNW 03:28:44 15° NE visible
21 Sep -0.5 05:00:59 10° WNW 05:01:42 14° NW 05:01:42 14° NW visible
22 Sep -3.5 02:35:23 10° WSW 02:38:44 74° NNW 02:42:07 10° NE visible
22 Sep -1.7 04:13:14 10° WNW 04:15:59 22° NNW 04:16:17 22° N visible
23 Sep -1.9 03:25:28 10° WNW 03:28:24 27° NNW 03:30:47 13° NE visible
23 Sep -0.2 05:03:31 10° NW 05:03:44 11° NW 05:03:44 11° NW visible
24 Sep -2.3 02:37:43 10° W 02:40:51 34° NNW 02:43:58 10° NE visible
24 Sep -1.4 04:15:52 10° NW 04:18:09 19° N 04:18:09 19° N visible
25 Sep -1.5 03:28:09 10° WNW 03:30:43 20° N 03:32:32 14° NNE visible
26 Sep -1.7 02:40:21 10° WNW 02:43:05 22° NNW 02:45:49 10° NE visible
26 Sep -1.2 04:18:08 10° NW 04:19:49 18° NNW 04:19:49 18° NNW visible
27 Sep -1.6 03:30:34 10° NW 03:33:04 19° N 03:34:07 16° NNE visible
28 Sep -1.6 02:42:53 10° NW 02:45:23 19° N 02:47:52 10° NE visible
28 Sep -1.2 04:20:01 10° NW 04:21:22 19° NNW 04:21:22 19° NNW visible
29 Sep -2.0 03:32:34 10° NW 03:35:20 23° NNE 03:35:40 22° NNE visible
30 Sep -1.8 02:45:04 10° NW 02:47:39 20° N 02:49:59 11° NE visible
30 Sep -1.1 04:21:43 10° NW 04:22:56 20° NW 04:22:56 20° NW visible
